This is the latest recevied weather packets stored in our database for station/object DG2GGP-11. If no packets are shown the sender has not sent any weather packets the latest 10 day(s).
| Time | Temp. | Humidity | Pressure | Rain* | Wind** | Luminosity | Snow |
|---|---|---|---|---|---|---|---|
| 1777588757 | 2.78° C | 65% | 1025.6 hPa | 0 mm | - | 0 W/m² | - |
| 1777588157 | 2.78° C | 63% | 1025.7 hPa | 0 mm | - | 0 W/m² | - |
| 1777587557 | 3.33° C | 62% | 1025.7 hPa | 0 mm | - | 0 W/m² | - |
| 1777586957 | 3.33° C | 61% | 1025.7 hPa | 0 mm | - | 0 W/m² | - |
| 1777586357 | 3.33° C | 60% | 1025.8 hPa | 0 mm | - | 0 W/m² | - |
| 1777585757 | 3.89° C | 59% | 1025.8 hPa | 0 mm | - | 0 W/m² | - |
| 1777585157 | 3.89° C | 59% | 1025.7 hPa | 0 mm | - | 0 W/m² | - |
| 1777584557 | 4.44° C | 58% | 1025.6 hPa | 0 mm | - | 0 W/m² | - |
| 1777583957 | 4.44° C | 56% | 1025.6 hPa | 0 mm | - | 0 W/m² | - |
| 1777583357 | 5° C | 54% | 1025.5 hPa | 0 mm | - | 0 W/m² | - |
| 1777582757 | 5.56° C | 52% | 1025.5 hPa | 0 mm | - | 0 W/m² | - |
| 1777582157 | 6.11° C | 49% | 1025.5 hPa | 0 mm | - | 0 W/m² | - |
| 1777581557 | 7.22° C | 45% | 1025.5 hPa | 0 mm | - | 0 W/m² | - |
| 1777580957 | 7.78° C | 41% | 1025.5 hPa | 0 mm | - | 0 W/m² | - |
| 1777580357 | 8.33° C | 38% | 1025.3 hPa | 0 mm | - | 0 W/m² | - |
| 1777579757 | 8.89° C | 35% | 1025.4 hPa | 0 mm | - | 0 W/m² | - |
| 1777579157 | 9.44° C | 35% | 1025.3 hPa | 0 mm | - | 0 W/m² | - |
| 1777578557 | 10° C | 33% | 1025.3 hPa | 0 mm | - | 0 W/m² | - |
| 1777577957 | 10.56° C | 33% | 1025.2 hPa | 0 mm | - | 0 W/m² | - |
| 1777577357 | 10.56° C | 30% | 1025 hPa | 0 mm | - | 0 W/m² | - |
| 1777576757 | 10.56° C | 30% | 1024.9 hPa | 0 mm | - | 0 W/m² | - |
| 1777576157 | 11.11° C | 31% | 1024.8 hPa | 0 mm | - | 0 W/m² | - |
| 1777575557 | 11.11° C | 32% | 1024.7 hPa | 0 mm | - | 0 W/m² | - |
| 1777574957 | 11.67° C | 31% | 1024.6 hPa | 0 mm | - | 0 W/m² | - |
| 1777574357 | 11.67° C | 31% | 1024.4 hPa | 0 mm | - | 0 W/m² | - |
* Rain latest hour (hover to see other rain measurements)
** Current wind speed in m/s (hover to see current wind gust speed)